GEFSSE_500_meanwind_186.txt.gz
Wind_Speed
8 9 8 8 8 7 7 6 6 6 6 6 6 6 6 7 7 8 9 9 9 9 9 9 8 8 8 9 9 8 8 8 8 8 8 8 8 8 8 7 7 7 7
7 7 7 7 6 6 6 6 5 5 5 5 5 5 6 6 7 7 8 8 8 8 8 8 7 7 7 8 7 7 7 8 8 8 8 8 8 7 7 7 6 6 6
6 6 6 6 6 5 5 5 5 5 5 5 5 5 5 6 6 6 7 7 7 7 7 7 6 6 7 7 7 7 7 7 7 7 7 6 7 6 6 6 6 5 6
5 5 5 5 5 4 4 5 5 5 4 4 4 5 5 5 5 5 5 5 5 5 5 6 6 6 7 7 7 7 7 7 6 6 6 6 6 6 6 6 5 5 5
4 4 4 4 4 4 4 4 4 4 4 4 3 4 4 4 4 4 4 4 4 5 5 5 6 6 6 6 6 7 6 6 6 5 6 6 6 5 5 5 5 5 5
4 4 4 3 3 3 4 4 4 4 3 3 3 3 3 3 3 4 4 4 4 4 5 5 5 5 5 5 5 5 5 5 5 5 5 5 5 5 5 4 4 4 4
4 4 3 3 3 3 3 3 3 3 2 2 2 2 2 2 2 3 4 4 4 4 4 4 4 5 5 5 5 4 4 4 5 5 4 4 4 4 4 3 3 4 3
5 3 3 2 3 2 2 2 2 2 1 1 1 1 2 2 2 2 3 3 4 4 4 4 4 4 4 4 4 4 4 4 4 4 4 3 3 3 3 3 3 3 3
5 4 3 3 3 2 2 2 2 1 1 1 1 1 1 1 1 1 2 2 2 3 3 3 4 4 3 3 3 4 4 3 3 3 2 2 2 2 2 3 2 2 2
5 4 3 2 2 2 2 2 1 1 0 0 0 0 1 1 1 1 1 2 2 2 3 3 4 4 3 3 3 3 3 3 2 2 1 1 2 2 2 2 2 2 2
5 4 4 3 1 1 1 1 1 0 0 1 1 1 1 1 1 1 0 1 1 2 2 3 3 4 3 4 4 3 3 3 2 2 2 1 1 1 1 1 1 2 1
5 4 4 3 2 1 1 1 1 0 1 1 2 2 2 2 2 2 1 1 1 1 2 2 3 3 3 3 4 3 3 4 3 3 3 2 2 1 1 1 1 1 1
5 4 4 4 3 2 1 1 1 1 2 2 3 3 3 3 3 2 2 1 1 1 1 2 2 2 2 2 3 3 3 4 4 3 3 2 2 1 1 1 1 1 1
5 4 3 4 3 3 2 2 2 2 2 3 4 4 3 3 3 3 2 1 1 1 1 1 1 2 2 2 2 2 2 3 3 3 3 2 1 1 1 1 0 0 0
4 3 3 3 3 3 2 3 3 3 3 4 5 5 4 4 3 2 2 1 1 1 1 0 1 1 1 1 1 1 2 2 3 3 3 2 1 1 1 1 1 1 0
4 3 3 4 4 4 3 3 4 3 4 4 4 5 5 4 4 3 2 2 1 1 2 1 0 1 1 1 1 1 1 2 2 3 2 2 1 1 1 1 1 1 1
4 4 4 4 5 4 4 4 5 5 5 4 4 4 4 4 4 4 3 2 2 2 2 2 1 1 1 1 1 1 1 1 1 2 2 1 1 1 1 1 1 2 2
4 4 4 5 5 4 4 4 4 5 5 4 4 4 4 4 5 4 4 3 2 2 2 2 2 2 1 1 1 0 0 1 1 1 1 1 1 1 1 2 2 2 2
5 5 5 5 6 5 4 4 4 5 5 5 5 5 5 4 5 4 4 3 2 2 2 2 2 2 1 1 1 1 0 1 1 0 0 1 1 1 2 2 2 2 2
6 6 6 6 7 6 5 5 5 5 5 5 6 6 6 5 5 5 5 4 3 2 3 3 2 2 2 2 1 1 1 1 1 0 1 1 1 1 1 2 2 1 1
7 7 7 7 8 7 6 6 6 5 5 6 7 7 7 7 7 6 6 5 4 4 3 3 3 3 3 3 3 2 2 2 1 1 1 1 1 1 2 1 1 1 2
8 8 8 8 8 8 8 7 7 6 6 6 7 7 8 8 8 7 7 6 5 4 4 4 3 3 3 4 4 3 3 3 2 2 2 2 2 2 2 2 2 3 2
9 8 8 9 9 9 8 8 8 7 7 6 7 8 9 9 9 9 9 8 7 6 5 4 4 4 4 4 4 3 3 4 4 3 3 3 3 3 3 3 3 3 3
9 9 9 10 9 9 8 8 7 7 7 7 8 9 10 10 10 10 10 9 8 7 6 5 5 5 5 5 5 4 4 4 5 5 5 4 4 4 4 4 4 3 3
10 10 10 10 10 9 9 8 8 7 7 8 9 9 10 10 11 11 10 10 9 8 8 7 6 6 6 6 6 6 5 5 6 6 6 5 5 5 5 4 5 5 5
10 9 9 10 9 9 9 9 8 8 7 7 8 9 10 10 11 11 11 10 10 9 8 8 7 7 7 7 8 8 7 7 6 7 7 7 7 7 6 6 6 6 6

GEFSSE_500_meanwind_192.txt.gz
Wind_Speed
10 9 9 9 10 11 11 12 12 11 11 11 10 10 9 9 9 9 9 9 9 9 9 8 8 8 7 7 8 7 7 7 7 7 7 7 7 7 7 7 6 6 6
10 9 8 9 10 10 11 11 11 10 10 10 9 9 9 9 9 9 9 9 9 8 8 8 8 7 7 7 8 7 7 6 6 6 7 7 7 6 6 6 6 6 6
9 9 8 8 9 9 9 10 10 9 9 9 9 9 9 8 8 8 8 8 8 8 8 7 7 7 7 7 6 6 6 5 5 5 5 5 6 6 6 5 5 5 5
8 8 8 8 8 8 8 9 9 9 9 9 9 8 8 8 8 8 8 8 7 7 7 7 6 6 6 5 5 5 5 5 5 5 5 5 5 5 5 5 5 5 5
7 7 7 8 8 8 8 8 8 9 9 9 9 8 8 8 8 8 7 7 7 7 7 6 6 5 5 5 4 4 4 4 4 4 5 5 4 4 4 4 4 4 4
7 7 7 8 8 8 8 8 8 9 8 8 8 8 8 8 8 7 7 7 7 6 6 6 5 5 5 4 5 4 4 3 3 4 4 4 3 3 3 4 4 4 4
6 7 7 7 7 7 7 7 7 8 8 8 8 7 7 7 7 7 7 7 6 6 6 5 4 5 4 4 4 4 3 3 4 4 3 3 2 2 3 3 3 3 3
6 6 6 7 7 7 7 7 7 7 7 7 7 7 7 7 7 7 7 6 6 6 5 5 4 4 4 4 4 3 3 3 3 3 3 2 2 2 2 2 2 2 2
6 6 6 6 6 6 6 6 6 6 6 6 6 6 6 6 6 6 6 6 5 5 5 4 4 3 4 4 4 3 4 3 3 3 2 2 2 1 1 1 1 1 1
6 6 6 6 5 5 5 5 6 6 6 5 5 5 5 5 5 5 5 5 4 4 4 4 3 4 4 3 3 3 3 3 3 2 2 2 2 1 1 1 1 1 1
6 6 5 5 5 5 5 4 4 4 4 4 4 4 4 4 4 4 4 4 4 4 3 4 3 3 3 3 3 3 3 3 3 3 2 2 1 1 0 0 1 1 1
5 5 5 4 4 4 4 3 4 3 3 3 3 3 3 3 3 3 3 3 3 3 3 3 3 3 3 3 3 3 3 3 3 3 2 2 1 1 1 1 1 1 1
5 5 5 4 3 3 3 2 3 3 2 2 2 2 2 2 2 2 2 2 2 2 2 2 2 3 3 3 3 3 3 3 3 3 2 2 1 1 1 1 1 1 1
5 4 4 4 3 3 2 1 1 1 1 1 1 1 2 1 1 1 2 2 2 2 1 1 1 1 2 2 2 2 2 3 2 2 2 1 1 1 1 1 0 1 2
4 4 4 3 3 3 2 1 0 0 1 1 1 1 1 0 1 1 1 1 1 1 1 1 0 1 1 2 2 2 2 2 2 2 2 1 1 1 1 1 1 1 2
4 4 4 4 4 3 3 3 2 2 3 3 2 2 1 1 1 1 1 0 0 0 0 0 1 1 2 2 2 2 2 2 2 2 2 1 1 1 1 1 1 1 2
5 4 3 4 4 4 4 4 4 4 4 3 3 3 3 3 2 2 1 0 0 0 1 1 1 1 2 1 1 1 1 2 2 2 2 1 1 1 1 1 1 2 2
5 4 4 4 5 5 5 4 4 5 4 4 4 4 4 4 3 3 3 2 1 1 1 1 1 1 2 2 1 1 1 2 2 2 2 2 1 1 2 1 1 1 2
5 5 5 5 5 5 5 5 5 4 4 4 5 4 5 5 4 4 4 4 3 2 1 2 2 2 2 2 2 2 2 2 2 3 2 2 2 1 1 1 1 1 2
7 6 6 6 6 5 5 5 5 4 4 4 4 4 5 6 5 5 5 5 4 3 2 2 2 3 3 3 3 2 2 2 2 2 2 2 2 1 1 1 1 2 2
7 7 7 7 7 6 5 6 5 5 5 4 4 5 5 6 7 6 6 6 6 5 3 3 3 3 3 3 4 4 4 3 3 2 2 2 2 2 2 2 2 2 2
8 8 8 8 8 7 7 7 7 6 6 5 5 6 7 8 8 8 8 8 7 6 6 5 4 4 4 4 4 5 5 4 4 3 3 3 3 3 3 2 3 3 3
9 9 9 9 9 9 9 9 8 7 7 7 7 7 8 9 9 10 9 9 9 8 7 6 6 5 5 5 5 5 5 5 5 5 4 4 4 4 4 4 4 4 4
10 10 9 9 9 10 10 9 9 8 8 8 8 8 8 9 10 10 10 10 9 9 8 7 6 6 6 6 6 6 6 6 6 6 6 6 6 6 5 5 5 5 6
11 10 10 10 10 10 10 10 10 9 9 9 9 9 10 9 10 11 11 11 11 10 10 9 8 7 7 7 7 7 7 7 7 7 8 8 8 7 7 7 7 6 6
12 11 11 10 10 10 11 11 11 10 10 9 9 10 10 10 11 12 12 13 12 12 11 10 10 9 8 8 8 9 9 9 9 9 9 9 9 9 8 8 8 8 8

GEFSSE_500_meanwind_198.txt.gz
Wind_Speed
11 11 10 9 10 10 11 11 13 13 13 14 14 14 13 13 12 12 11 11 11 10 11 10 10 10 9 9 8 8 8 7 6 6 7 7 7 7 7 6 6 6 6
10 10 9 9 9 9 10 11 11 12 13 13 13 13 13 12 12 11 11 11 10 10 10 10 10 10 9 9 9 8 7 6 6 6 6 6 6 6 6 6 5 5 5
9 9 8 7 8 8 9 9 10 11 12 12 12 11 11 12 11 11 10 10 10 10 10 10 9 8 8 8 8 7 6 6 5 6 5 5 5 5 4 4 5 4 4
9 9 7 6 7 7 8 8 9 10 10 11 11 11 11 11 10 10 10 10 9 9 9 9 8 7 7 7 7 6 6 5 5 5 4 4 4 3 3 4 4 4 4
9 8 7 6 6 6 7 8 8 8 9 10 11 11 10 10 10 9 9 9 8 8 8 7 7 6 6 6 6 6 5 5 4 4 4 3 3 3 3 3 4 4 4
8 8 7 5 5 6 7 7 8 8 9 10 10 10 10 10 10 9 9 8 7 7 7 7 6 6 6 6 5 5 5 4 4 4 3 3 3 3 3 3 3 3 3
8 7 7 6 5 5 6 6 7 7 9 10 10 9 10 9 9 8 8 8 7 6 6 6 5 5 5 5 4 3 3 4 4 4 3 3 3 2 2 3 2 3 3
7 7 6 6 5 5 5 5 6 6 8 9 9 8 8 8 8 7 7 7 6 6 6 5 5 5 5 4 3 3 3 3 3 2 2 2 2 2 2 2 2 2 2
7 6 5 5 5 5 5 5 6 6 7 8 8 8 7 7 7 6 6 6 6 5 5 4 4 4 4 4 4 3 2 2 2 2 2 1 1 1 2 1 1 2 2
6 5 5 4 4 4 4 5 6 6 6 6 6 6 6 6 6 6 5 5 5 5 4 4 4 4 3 4 4 4 4 3 3 2 2 1 1 1 1 1 1 1 1
6 5 4 4 4 4 4 4 5 5 5 5 5 5 5 5 5 5 5 5 4 4 4 4 4 3 4 3 3 4 4 3 3 3 2 2 1 1 0 0 0 1 1
5 4 4 4 4 3 3 3 4 4 4 4 4 4 4 4 4 4 4 4 4 4 4 4 4 3 3 3 3 3 3 3 3 2 2 2 1 1 0 0 1 1 1
4 4 4 4 3 3 3 2 2 3 3 3 3 3 3 3 3 3 3 3 3 3 3 3 3 3 3 3 3 3 3 3 2 2 2 2 2 1 1 1 1 1 1
4 3 4 4 3 3 2 1 1 1 1 1 2 2 2 3 3 3 2 2 2 2 2 2 2 2 2 2 2 2 2 2 2 2 1 1 1 1 1 1 1 2 2
3 3 3 3 3 2 2 1 0 0 1 1 1 2 2 2 3 2 2 2 2 1 1 1 1 1 1 1 1 1 2 2 1 1 1 1 1 1 1 2 1 1 2
3 3 4 3 3 3 3 2 1 2 2 2 2 3 3 2 3 3 2 2 1 1 1 2 1 1 0 1 1 1 1 2 1 1 1 1 1 1 1 1 1 1 2
4 4 4 4 4 4 4 3 3 3 3 3 3 3 4 4 3 3 3 2 1 1 1 2 2 2 1 1 1 1 1 1 1 1 1 1 1 1 1 1 1 1 2
4 4 5 5 5 5 5 5 4 4 4 4 4 4 4 4 4 4 4 3 2 2 1 1 2 2 2 2 1 1 1 1 1 2 1 1 1 1 1 1 1 1 2
5 5 6 6 6 6 6 6 5 5 5 5 5 4 4 5 5 5 5 4 3 3 2 2 2 3 3 2 2 2 1 1 2 2 2 2 1 1 1 1 1 1 1
6 7 7 6 6 6 6 6 6 6 6 5 5 5 5 5 6 6 5 5 5 4 3 3 2 3 3 3 3 3 3 3 2 2 2 2 1 1 2 2 2 2 1
8 8 8 8 7 7 7 7 7 7 7 6 6 6 5 5 6 6 7 6 6 5 4 4 3 3 3 3 3 4 4 4 3 3 2 2 2 3 3 2 2 2 2
9 9 9 9 9 9 8 8 8 8 7 7 6 6 5 5 7 7 7 7 7 6 5 5 5 4 4 4 4 4 4 4 4 4 4 4 4 4 4 4 4 4 3
10 10 10 10 10 10 9 8 8 8 8 7 7 7 7 7 7 8 8 8 8 7 7 6 6 5 5 5 5 5 5 5 6 5 5 5 5 5 5 5 5 5 4
11 11 11 11 11 11 10 9 9 9 9 8 8 8 8 8 8 9 9 9 9 9 8 8 7 6 6 6 6 6 6 6 6 7 7 6 6 6 6 6 6 6 6
14 13 12 12 11 11 11 11 11 11 11 10 9 9 9 9 9 10 10 10 10 10 9 9 8 8 7 7 7 7 7 7 8 8 8 7 7 7 7 7 7 7 7
15 14 12 12 12 11 10 10 11 12 12 12 11 10 10 10 9 10 10 10 10 10 10 9 10 9 9 8 8 8 8 8 9 9 9 9 9 8 8 9 9 9 9

GEFSSE_500_meanwind_204.txt.gz
Wind_Speed
10 9 9 8 8 7 7 8 8 8 8 8 8 9 9 10 10 11 11 11 10 10 10 10 10 9 9 9 8 7 7 7 7 8 8 8 7 7 8 7 7 6 6
9 8 8 7 7 6 6 6 7 7 7 7 7 8 9 9 10 10 10 10 10 11 10 10 9 9 8 8 8 7 7 7 7 8 8 8 7 7 7 6 6 6 5
8 7 7 6 6 6 5 5 5 6 6 7 7 7 8 9 9 9 9 9 10 10 10 10 9 9 8 8 8 8 8 7 7 8 7 7 6 6 6 6 6 6 5
8 7 7 6 4 4 5 4 4 4 5 5 6 7 7 7 8 8 8 8 9 9 9 9 9 8 8 7 7 7 7 7 7 7 6 6 5 6 6 6 6 6 5
8 8 7 6 5 4 4 3 3 3 4 4 6 6 6 7 7 7 7 7 8 8 8 9 8 8 7 6 6 7 6 6 6 6 6 5 5 5 6 6 5 5 5
8 8 7 6 5 5 4 3 3 3 3 4 5 5 6 6 7 7 7 7 8 8 8 8 7 7 6 6 5 6 5 5 5 5 5 4 5 5 6 5 5 4 4
8 8 8 6 5 5 5 4 3 3 3 4 5 5 5 5 6 6 7 7 7 7 7 7 6 6 5 5 5 5 4 4 4 3 4 4 4 5 5 5 4 4 3
8 8 8 7 5 5 5 4 3 3 3 4 4 5 4 5 5 6 6 6 6 6 6 5 5 5 5 4 4 4 4 3 3 3 3 3 4 4 4 3 3 3 3
8 8 7 7 6 6 5 4 4 3 3 3 3 4 4 4 5 5 5 5 5 5 5 5 4 4 5 4 3 4 4 3 3 2 3 3 4 4 4 2 2 3 3
8 8 7 7 6 6 5 5 4 3 3 3 3 3 3 3 4 4 4 4 4 5 5 4 4 5 5 5 4 4 3 3 3 3 3 3 3 4 3 3 2 3 3
9 8 8 8 7 6 6 6 4 3 3 3 3 3 2 3 3 3 4 4 4 4 5 4 4 4 5 5 5 4 4 4 3 4 4 4 3 3 3 3 3 2 2
9 9 9 8 7 6 6 6 5 4 4 3 3 3 2 2 2 2 3 4 4 4 4 4 4 4 5 5 5 5 5 4 4 3 3 3 3 4 3 3 3 2 2
9 9 8 8 8 7 6 6 5 4 4 4 3 3 2 2 2 2 3 3 3 3 3 3 4 4 4 4 4 5 5 5 4 3 3 3 3 3 3 3 3 3 3
9 9 9 9 8 8 7 7 6 5 5 5 4 3 2 2 1 1 2 2 2 2 2 2 3 3 3 3 3 4 4 4 4 3 3 3 3 3 3 3 3 3 3
9 9 9 10 9 8 7 7 7 6 5 5 5 4 3 3 2 2 2 2 2 1 1 2 2 2 3 2 3 3 4 4 4 3 3 3 2 3 3 3 3 3 3
9 9 10 10 10 9 8 8 8 6 6 6 5 5 4 4 4 3 3 3 3 2 2 2 2 2 2 2 3 3 3 3 3 3 3 2 2 2 2 3 3 3 4
9 9 10 10 10 10 9 9 8 7 7 7 6 6 5 5 4 3 3 4 4 3 2 2 2 2 3 3 3 3 3 3 3 3 3 3 2 2 2 2 3 3 3
9 10 10 10 10 10 10 10 10 8 7 7 7 7 6 5 5 4 4 4 4 3 2 2 2 2 2 2 2 3 3 3 4 3 3 3 2 2 2 2 2 2 2
10 10 10 11 11 11 10 11 11 9 8 8 8 7 7 6 6 4 4 4 4 4 3 3 3 2 2 2 2 3 3 3 4 4 3 3 2 1 1 2 2 2 2
10 10 10 11 11 11 11 11 12 11 10 9 8 8 7 7 6 5 5 4 4 4 4 3 3 3 2 2 3 3 4 4 4 4 4 3 3 2 2 2 2 2 2
10 11 11 11 11 11 12 12 13 12 11 9 9 8 8 7 7 6 5 5 5 5 4 4 3 3 3 3 3 4 4 4 4 4 4 3 3 3 2 3 3 2 3
11 11 12 12 12 12 13 13 13 12 10 9 9 8 8 7 7 6 6 6 6 5 5 4 4 4 4 4 4 4 4 5 5 5 4 4 4 4 3 4 4 4 4
12 12 12 13 13 13 13 13 13 12 10 9 9 8 8 7 7 7 6 6 6 6 6 5 5 4 5 5 5 5 5 5 6 5 5 5 5 5 5 5 5 6 6
12 12 13 13 14 13 13 12 13 12 10 9 9 9 8 8 7 7 6 6 6 7 7 6 6 6 5 6 6 5 6 6 6 6 6 6 6 7 6 6 6 6 6
12 12 13 14 14 13 12 12 12 12 11 10 9 9 10 9 8 7 7 7 7 7 7 6 6 6 7 7 7 6 7 7 7 7 8 8 8 8 8 8 8 8 8
13 13 13 14 14 12 12 11 12 12 11 10 10 9 10 9 8 7 7 7 7 7 7 7 6 7 8 8 8 8 8 8 8 9 9 10 10 10 10 10 9 9 9

GEFSSE_500_meanwind_210.txt.gz
Wind_Speed
13 12 12 12 11 11 11 10 9 8 7 7 7 8 9 8 9 9 9 9 9 8 8 9 9 8 8 8 8 8 8 8 8 7 7 7 7 7 7 7 6 6 5
13 12 11 11 11 11 10 10 9 8 7 6 7 7 8 9 9 9 9 9 9 8 8 9 9 9 8 8 8 7 8 8 8 7 8 7 7 7 7 6 6 5 5
13 12 11 10 10 10 10 9 8 8 7 6 6 6 6 7 8 8 9 9 8 9 8 9 9 10 9 8 7 7 7 8 8 7 7 7 7 7 6 6 5 5 5
13 12 11 10 10 9 9 9 8 8 7 6 6 6 7 7 7 7 7 7 8 8 9 9 9 9 9 8 8 7 7 7 7 7 6 7 6 6 6 6 5 5 4
13 12 11 10 10 9 9 8 8 8 7 6 6 6 6 6 6 6 6 7 8 8 8 9 8 8 8 8 7 7 6 6 6 6 6 6 6 6 6 5 5 4 4
13 12 11 10 9 10 9 9 8 8 7 6 5 6 6 6 6 5 6 6 7 8 8 8 7 7 7 7 7 6 5 5 5 5 5 5 6 6 6 5 4 4 4
13 12 12 11 10 10 9 8 8 8 8 6 6 6 5 6 5 6 7 6 7 7 7 7 6 6 6 6 6 5 4 5 5 5 4 5 5 5 5 4 4 4 4
13 12 12 11 11 10 9 9 8 7 7 6 6 6 6 6 5 5 6 7 7 7 6 6 6 6 6 5 4 4 4 4 5 4 4 4 4 4 4 4 4 3 3
13 13 12 12 11 10 10 9 8 7 7 6 6 6 6 6 5 5 5 6 6 5 5 5 5 5 5 4 4 4 4 4 4 3 4 3 3 3 3 3 3 2 2
13 13 13 13 12 11 11 10 9 7 6 6 6 5 5 5 5 5 5 5 5 5 4 5 5 5 5 4 4 3 4 5 4 4 3 2 3 3 2 2 2 2 1
13 13 12 12 11 11 11 11 10 8 7 6 6 6 5 5 5 5 5 5 5 5 5 5 5 5 5 5 4 4 4 4 4 3 3 3 3 3 2 2 2 2 2
13 13 12 12 11 11 11 10 10 9 8 7 6 6 6 5 4 5 4 5 5 5 5 5 5 5 6 5 4 4 4 4 4 3 3 3 2 2 2 2 2 2 2
13 13 13 12 12 11 11 11 10 10 9 8 6 6 6 5 4 4 4 4 4 4 4 4 5 5 4 4 4 4 4 4 3 3 3 3 3 3 2 2 2 2 2
13 13 13 13 12 12 11 11 10 10 9 8 7 6 5 5 4 3 3 3 3 3 3 3 3 3 3 4 4 4 3 3 3 3 3 3 3 3 3 2 2 3 2
13 12 12 12 12 12 11 11 10 9 9 8 7 5 4 4 3 3 3 3 3 3 3 3 3 3 3 3 3 3 2 3 2 3 3 2 2 2 3 3 3 3 3
12 12 12 12 11 11 11 11 10 9 8 8 7 6 5 3 3 3 3 2 2 2 3 2 2 2 2 2 2 2 2 2 2 2 2 2 2 2 2 2 3 3 3
11 12 12 12 11 11 11 10 9 9 8 8 8 6 5 3 3 3 2 2 2 2 3 2 3 2 2 2 2 2 2 2 2 2 1 1 1 1 1 2 3 3 3
11 11 12 12 12 12 11 10 9 9 8 8 8 7 6 4 3 3 2 2 2 2 2 2 2 2 2 1 1 1 1 1 1 1 1 1 0 1 0 1 2 2 1
10 11 11 11 11 11 11 10 10 10 9 8 8 7 6 5 4 2 2 2 1 1 1 1 2 1 1 1 1 1 1 1 1 1 2 1 1 1 1 1 1 1 1
10 10 10 10 10 10 11 10 10 10 9 8 8 7 6 5 4 2 1 1 1 0 1 1 1 1 1 1 1 0 1 1 2 1 2 2 2 2 2 2 2 2 2
9 9 9 9 10 10 10 10 10 9 8 7 7 6 6 5 4 2 1 1 0 1 1 0 1 1 0 0 0 1 1 2 3 3 2 2 2 2 2 2 3 4 4
8 8 8 8 9 10 9 9 9 9 8 8 7 6 5 5 4 2 2 1 1 2 2 1 2 1 1 1 1 1 1 2 3 4 4 3 3 4 4 4 4 4 4
8 8 7 8 9 9 9 9 8 8 8 7 6 5 4 4 3 2 2 1 1 2 3 2 2 2 2 2 2 2 2 3 4 4 4 4 4 5 5 6 6 6 5
9 9 8 8 8 9 9 8 7 7 7 6 5 5 4 3 3 3 2 2 2 3 3 3 3 3 3 3 3 3 4 4 4 4 4 5 5 6 6 7 7 7 7
9 9 9 9 9 9 8 8 7 6 6 6 5 5 5 4 3 3 3 2 2 3 3 3 4 4 4 4 4 5 5 5 5 5 5 5 6 7 7 7 7 8 8
9 9 9 9 9 10 9 7 7 6 6 6 5 5 5 4 3 3 4 3 3 3 3 4 4 5 5 5 5 6 6 6 6 7 7 6 7 7 8 9 9 9 10